Погода в Казанцеве

Россия / Новосибирская область     55°04′37″N   77°41′02″E
темп.,
°C
ветер,
м/с
пор.,
м/с
влажн.,
%
обл.,
%
осадки,
мм/ч
давл.,
гПа
погр.,
м
5 декабря, вс
вс501:00−2юз71195100 0.1 1027305
04:00−2ююз61195100 0.1 1027331
07:00−2ююз7129485 0.2 1025301
10:00−3ююз6129677 0.0 1023181
13:00−1ююз8149467 0.0 1022341
16:00−2ююз71394100 0.0 1021240
19:00−2ююз71392100 0.0 1020213
22:00−3ююз71391100 0.0 1020186
6 декабря, пн
пн601:00−4юз7148850 0.0 1019210
04:00−4юз6129136 0.0 1019179
07:00−4юз51094100 0.0 1018141
10:00−5юз4795100 0.0 1018101
13:00−5юз4694100 0.0 1017120
16:00−5юз4594100 0.0 101682
19:00−6ююз4794100 0.0 101590
22:00−4юз61090100 0.0 1014222
7 декабря, вт
вт701:00−4юз71291100 0.0 1013286
04:00−4зюз8129591 0.4 1013369
07:00−5зсз9128797 0.5 1015487
10:00−10зсз7129391 0.0 1019289
13:00−12зсз81390100 0.1 1023511
16:00−14зсз7129194 0.0 1026385
19:00−17зсз6109324 0.0 1031214
22:00−18зсз58955 0.0 1034155
8 декабря, ср
ср801:00−19з359610 0.0 1036104
04:00−19з459742 0.0 1037108
07:00−19з459876 0.0 1037110
10:00−19зюз459887 0.0 1038104
13:00−18зюз459683 0.0 1038199
16:00−17зюз359510 0.0 103889
19:00−18з459510 0.0 103957
22:00−20зсз349737 0.0 104070
9 декабря, чт
чт901:00−21зсз349844 0.0 104175
04:00−21зсз349846 0.0 104290
07:00−20з359818 0.0 104396
10:00−19зюз359868 0.0 104485
13:00−18юз469524 0.0 1044175
16:00−16ююз579337 0.0 1043157
19:00−16ююз6991100 0.0 1042161
22:00−13ююз7118986 0.0 1041252